Location: Unspecified
(40.7945°N, 0.0000°E)
Time: 13:21:33
(UTC+00:00)

Courier 1B - Pass Details

Date: 22 January 2021
Orbit: 962 x 1209 km, 28.3° (Epoch: 28 February)

Event Time Altitude Azimuth Distance (km) Brightness Sun altitude
Rises 02:33:22 0° 250° (WSW) 3,638 - -53.2°
Reaches altitude 10° 02:36:24 10° 238° (WSW) 2,685 - -52.6°
Maximum altitude 02:41:39 27° 183° (S) 1,771 - -51.7°
Drops below altitude 10° 02:46:58 10° 129° (SE) 2,724 - -50.8°
Exits shadow 02:49:03 - 120° (ESE) 3,365 10.6 -50.4°
Sets 02:50:05 0° 117° (ESE) 3,700 10.9 -50.2°
